カタログに戻る

SL-8 R/B

運用中LEO
NORAD 19257·ROCKET BODY·🇷🇺 Russia

打ち上げ Jun 21, 1988 から Plesetsk Cosmodrome

Loading…

次のパス (今後24時間)

TLE

最新Source: Space-Track

元期: Sep 14, 2026, 14:42 UTC

1 19257U 88053B   26257.61307066  .00000157  00000-0  59228-4 0  9992
2 19257  74.0464 124.2149 0021160 258.3452 132.2293 14.38994877  3660

AllMySatでSL-8 R/Bをリアルタイム追跡

Download on the App Store